Austin, MN

2:57 AM CST on January 22, 2017 (GMT -0600)
Austin Municipal

Weather History for KAUM - February, 2013

Change the Weather History Date:

Monday, February 18, 2013

  Actual Average Record
Temperature  
Mean Temperature 20 °F -  
Max Temperature 35 °F 29 °F 42 °F (2002)
Min Temperature 5 °F 16 °F -18 °F (2006)
Degree Days  
Heating Degree Days 45    
Moisture  
Dew Point 16 °F    
Average Humidity 76    
Maximum Humidity 93    
Minimum Humidity 67    
Precipitation  
Precipitation 0.00 in - - ()
Sea Level Pressure  
Sea Level Pressure 29.62 in    
Wind  
Wind Speed 14 mph (West)    
Max Wind Speed 30 mph    
Max Gust Speed 41 mph    
Visibility 9 miles    
Events Snow    
Averages and records for this station are not official NWS values.
T = Trace of Precipitation, MM = Missing Value Source: NWS Daily Summary

Daily Weather History Graph

Daily Weather History Graph

Search for Another Location

Airport or City:

Trip Planner

Search our weather history database for the weather conditions in past years. The results will help you decide how hot, cold, wet, or windy it might be!

Date:

Astronomy

Feb. 18, 2013 Rise Set
Actual Time 7:05 AM CST 5:46 PM CST
Civil Twilight 6:36 AM CST 6:15 PM CST
Nautical Twilight 6:02 AM CST 6:49 PM CST
Astronomical Twilight 5:29 AM CST 7:22 PM CST
Moon 11:27 AM CST (2/18) 1:50 AM CST (2/18)
Length of Visible Light 11h 39m
Length of Day
10h 40m
First Quarter, 58% of the Moon is Illuminated
Feb 18
First Quarter
Feb 25
Full
Mar 4
Last Quarter
Mar 11
New
Mar 19
First Quarter

Hourly Weather History & Observations

Time (CST) Temp. Windchill Dew Point Humidity Pressure Visibility Wind Dir Wind Speed Gust Speed Precip Events Conditions
12:14 AM 30.2 °F 21.3 °F 21.2 °F 69% 29.64 in 10.0 mi SSE 10.4 mph - N/A   Clear
12:35 AM 30.2 °F 20.8 °F 21.2 °F 69% 29.63 in 10.0 mi SSE 11.5 mph 16.1 mph N/A   Clear
12:55 AM 30.2 °F 20.2 °F 21.2 °F 69% 29.62 in 10.0 mi SSE 12.7 mph 17.3 mph N/A   Clear
1:15 AM 30.2 °F 21.9 °F 21.2 °F 69% 29.61 in 10.0 mi SSE 9.2 mph - N/A   Clear
1:35 AM 30.2 °F 21.9 °F 21.2 °F 69% 29.60 in 10.0 mi SSE 9.2 mph - N/A   Clear
1:55 AM 30.2 °F 21.9 °F 23.0 °F 75% 29.60 in 10.0 mi SSE 9.2 mph - N/A   Clear
2:15 AM 30.2 °F 21.3 °F 23.0 °F 75% 29.59 in 10.0 mi SSE 10.4 mph 16.1 mph N/A   Clear
2:35 AM 30.2 °F 21.3 °F 23.0 °F 75% 29.59 in 10.0 mi South 10.4 mph - N/A   Clear
2:55 AM 30.2 °F 21.9 °F 23.0 °F 75% 29.59 in 10.0 mi South 9.2 mph - N/A   Clear
3:15 AM 30.2 °F 21.9 °F 23.0 °F 75% 29.58 in 10.0 mi South 9.2 mph - N/A   Clear
3:35 AM 30.2 °F 24.3 °F 23.0 °F 75% 29.58 in 10.0 mi South 5.8 mph - N/A   Clear
3:55 AM 30.2 °F 24.3 °F 23.0 °F 75% 29.56 in 10.0 mi South 5.8 mph - N/A   Clear
4:15 AM 30.2 °F 24.3 °F 23.0 °F 75% 29.55 in 10.0 mi SSE 5.8 mph - N/A   Clear
4:35 AM 30.2 °F 21.3 °F 23.0 °F 75% 29.54 in 10.0 mi South 10.4 mph - N/A   Clear
4:55 AM 30.2 °F 22.6 °F 24.8 °F 80% 29.54 in 10.0 mi South 8.1 mph - N/A   Clear
5:15 AM 28.4 °F 22.2 °F 23.0 °F 80% 29.54 in 10.0 mi South 5.8 mph - N/A   Clear
5:35 AM 28.4 °F 21.2 °F 24.8 °F 86% 29.54 in 10.0 mi SSW 6.9 mph - N/A   Clear
5:55 AM 28.4 °F 21.2 °F 23.0 °F 80% 29.54 in 10.0 mi South 6.9 mph - N/A   Clear
6:15 AM 28.4 °F 20.4 °F 23.0 °F 80% 29.54 in 10.0 mi South 8.1 mph - N/A   Clear
6:35 AM 26.6 °F 20.0 °F 23.0 °F 86% 29.54 in 10.0 mi South 5.8 mph - N/A   Clear
6:55 AM 28.4 °F 20.4 °F 23.0 °F 80% 29.55 in 10.0 mi SSW 8.1 mph - N/A   Clear
7:15 AM 26.6 °F 19.1 °F 23.0 °F 86% 29.56 in 10.0 mi SSW 6.9 mph - N/A   Clear
7:35 AM 26.6 °F 22.6 °F 23.0 °F 86% 29.55 in 10.0 mi SSW 3.5 mph - N/A   Clear
8:15 AM 28.4 °F 22.2 °F 24.8 °F 86% 29.54 in 10.0 mi WSW 5.8 mph - N/A   Clear
8:35 AM 30.2 °F 26.7 °F 24.8 °F 80% 29.54 in 10.0 mi WSW 3.5 mph - N/A   Scattered Clouds
8:56 AM 32.0 °F 26.4 °F 26.6 °F 80% 29.55 in 10.0 mi West 5.8 mph - N/A   Scattered Clouds
9:15 AM 33.8 °F 27.0 °F 26.6 °F 75% 29.56 in 10.0 mi West 8.1 mph - N/A   Scattered Clouds
9:35 AM 33.8 °F 27.7 °F 26.6 °F 75% 29.56 in 10.0 mi West 6.9 mph - N/A   Mostly Cloudy
9:56 AM 33.8 °F 26.4 °F 26.6 °F 75% 29.57 in 10.0 mi West 9.2 mph - N/A   Overcast
10:15 AM 33.8 °F 25.3 °F 28.4 °F 81% 29.56 in 10.0 mi WNW 11.5 mph - N/A   Overcast
10:35 AM 33.8 °F 25.8 °F 28.4 °F 81% 29.55 in 10.0 mi WNW 10.4 mph - N/A   Overcast
10:56 AM 35.6 °F 26.6 °F 28.4 °F 75% 29.56 in 10.0 mi WNW 13.8 mph - N/A   Overcast
11:15 AM 33.8 °F 25.8 °F 28.4 °F 81% 29.56 in 5.0 mi WNW 10.4 mph - N/A   Haze
11:35 AM 33.8 °F 25.8 °F 30.2 °F 87% 29.56 in 5.0 mi NW 10.4 mph - N/A   Overcast
11:55 AM 33.8 °F 22.5 °F 28.4 °F 81% 29.56 in 4.0 mi NW 19.6 mph 26.5 mph N/A   Overcast
12:15 PM 28.4 °F 16.2 °F 26.6 °F 93% 29.57 in 3.0 mi WNW 17.3 mph 31.1 mph N/A   Overcast
12:35 PM 28.4 °F 15.1 °F 24.8 °F 86% 29.57 in 7.0 mi WNW 20.7 mph 26.5 mph N/A   Overcast
12:55 PM 26.6 °F 12.0 °F 21.2 °F 80% 29.57 in 10.0 mi WNW 23.0 mph 31.1 mph N/A   Overcast
1:15 PM 26.6 °F 13.1 °F 21.2 °F 80% 29.58 in 10.0 mi WNW 19.6 mph 33.4 mph N/A   Overcast
1:35 PM 26.6 °F 12.0 °F 19.4 °F 74% 29.59 in 10.0 mi WNW 23.0 mph 28.8 mph N/A   Overcast
1:55 PM 26.6 °F 11.1 °F 19.4 °F 74% 29.60 in 3.0 mi WNW 26.5 mph 29.9 mph N/A Snow Light Snow
2:15 PM 24.8 °F 10.3 °F 17.6 °F 74% 29.61 in 10.0 mi WNW 20.7 mph 29.9 mph N/A   Overcast
2:36 PM 23.0 °F 6.9 °F 15.8 °F 74% 29.62 in 10.0 mi WNW 24.2 mph 32.2 mph N/A   Overcast
2:55 PM 21.2 °F 3.5 °F 15.8 °F 80% 29.63 in 10.0 mi WNW 27.6 mph 34.5 mph N/A   Overcast
3:15 PM 21.2 °F 5.2 °F 15.8 °F 80% 29.64 in 10.0 mi WNW 21.9 mph 29.9 mph N/A   Overcast
3:35 PM 21.2 °F 4.9 °F 14.0 °F 74% 29.64 in 10.0 mi WNW 23.0 mph 31.1 mph N/A   Overcast
3:55 PM 19.4 °F 1.8 °F 12.2 °F 74% 29.65 in 10.0 mi WNW 25.3 mph 34.5 mph N/A   Mostly Cloudy
4:15 PM 19.4 °F 5.0 °F 12.2 °F 74% 29.65 in 10.0 mi WNW 16.1 mph 29.9 mph N/A   Mostly Cloudy
4:35 PM 17.6 °F -0.3 °F 10.4 °F 73% 29.66 in 10.0 mi WNW 24.2 mph 35.7 mph N/A   Overcast
4:55 PM 17.6 °F -1.9 °F 8.6 °F 68% 29.66 in 10.0 mi WNW 29.9 mph 41.4 mph N/A   Overcast
5:15 PM 15.8 °F -3.1 °F 8.6 °F 73% 29.66 in 7.0 mi WNW 25.3 mph 36.8 mph N/A Snow Light Snow
5:35 PM 14.0 °F -5.5 °F 6.8 °F 73% 29.67 in 10.0 mi WNW 25.3 mph 38.0 mph N/A   Overcast
5:55 PM 12.2 °F -8.9 °F 6.8 °F 79% 29.68 in 5.0 mi WNW 28.8 mph 36.8 mph N/A Snow Light Snow
6:15 PM 12.2 °F -8.6 °F 5.0 °F 73% 29.69 in 10.0 mi WNW 27.6 mph 39.1 mph N/A   Overcast
6:35 PM 12.2 °F -7.9 °F 5.0 °F 73% 29.70 in 10.0 mi WNW 25.3 mph 33.4 mph N/A   Overcast
6:55 PM 10.4 °F -10.7 °F 3.2 °F 73% 29.71 in 10.0 mi WNW 26.5 mph 36.8 mph N/A   Overcast
7:15 PM 10.4 °F -10.7 °F 1.4 °F 67% 29.72 in 10.0 mi WNW 26.5 mph 33.4 mph N/A   Overcast
7:35 PM 10.4 °F -10.3 °F 1.4 °F 67% 29.72 in 10.0 mi WNW 25.3 mph 40.3 mph N/A   Overcast
7:55 PM 8.6 °F -12.3 °F 1.4 °F 73% 29.72 in 10.0 mi NW 24.2 mph 36.8 mph N/A   Overcast
8:15 PM 8.6 °F -13.8 °F 1.4 °F 73% 29.72 in 10.0 mi WNW 28.8 mph 36.8 mph N/A   Overcast
8:35 PM 8.6 °F -11.9 °F -0.4 °F 67% 29.73 in 10.0 mi NW 23.0 mph 34.5 mph N/A   Overcast
8:55 PM 8.6 °F -11.0 °F 1.4 °F 73% 29.73 in 5.0 mi WNW 20.7 mph 32.2 mph N/A Snow Light Snow
9:15 PM 6.8 °F -15.1 °F 1.4 °F 79% 29.73 in 5.0 mi WNW 25.3 mph 31.1 mph N/A Snow Light Snow
9:35 PM 6.8 °F -14.3 °F -0.4 °F 72% 29.73 in 7.0 mi WNW 23.0 mph 39.1 mph N/A Snow Light Snow
9:55 PM 6.8 °F -14.3 °F -0.4 °F 72% 29.73 in 7.0 mi WNW 23.0 mph 33.4 mph N/A Snow Light Snow
10:15 PM 6.8 °F -13.8 °F -0.4 °F 72% 29.73 in 4.0 mi WNW 21.9 mph 31.1 mph N/A Snow Light Snow
10:35 PM 5.0 °F -15.7 °F -0.4 °F 78% 29.74 in 5.0 mi WNW 20.7 mph 36.8 mph N/A Snow Light Snow
10:55 PM 5.0 °F -14.7 °F -2.2 °F 72% 29.75 in 5.0 mi WNW 18.4 mph 36.8 mph N/A Snow Light Snow
11:15 PM 5.0 °F -16.2 °F -2.2 °F 72% 29.76 in 7.0 mi WNW 21.9 mph 33.4 mph N/A Snow Light Snow
11:35 PM 5.0 °F -16.2 °F -2.2 °F 72% 29.77 in 7.0 mi WNW 21.9 mph 35.7 mph N/A   Overcast
11:55 PM 5.0 °F -17.9 °F -2.2 °F 72% 29.78 in 7.0 mi WNW 26.5 mph 33.4 mph N/A   Overcast